Weather History for Salem, IL

Change the Weather History Date:

Sunday, February 23, 2014

  Actual Average Record
Temperature  
Mean Temperature 32 °F -  
Max Temperature 37 °F 47 °F 69 °F (1982)
Min Temperature 27 °F 28 °F 5 °F (1968)
Degree Days  
Heating Degree Days 33    
Moisture  
Dew Point 25 °F    
Average Humidity 71    
Maximum Humidity 93    
Minimum Humidity 57    
Precipitation  
Precipitation 0.00 in - - ()
Sea Level Pressure  
Sea Level Pressure 30.20 in    
Wind  
Wind Speed 9 mph (North)    
Max Wind Speed 20 mph    
Max Gust Speed 25 mph    
Visibility 10 miles    
Events      
Averages and records for this station are not official NWS values.
T = Trace of Precipitation, MM = Missing Value Source: NWS Daily Summary

Daily Weather History Graph

Daily Weather History Graph

Search for Another Location

Airport:

Trip Planner

Search our weather history database for the weather conditions in past years. The results will help you decide how hot, cold, wet, or windy it might be!

Date:

Astronomy

Feb. 23, 2014 Rise Set
Actual Time 6:36 AM CST 5:42 PM CST
Civil Twilight 6:09 AM CST 6:09 PM CST
Nautical Twilight 5:38 AM CST 6:40 PM CST
Astronomical Twilight 5:08 AM CST 7:10 PM CST
Moon 1:32 AM CST (2/23) 11:46 AM CST (2/23)
Length of Visible Light 11h 59m
Length of Day
11h 06m
Last Quarter, 38% of the Moon is Illuminated
Feb 23
Last Quarter
Mar 1
New
Mar 8
First Quarter
Mar 16
Full
Mar 23
Last Quarter

Hourly Weather History & Observations

Time (CST) Temp. Windchill Dew Point Humidity Pressure Visibility Wind Dir Wind Speed Gust Speed Precip Events Conditions
12:15 AM 37.9 °F 35.5 °F 34.0 °F 86% 30.05 in 10.0 mi ENE 3.5 mph - N/A   Overcast
12:35 AM 37.9 °F 35.5 °F 34.0 °F 86% 30.04 in 10.0 mi East 3.5 mph - N/A   Overcast
12:55 AM 37.6 °F 34.0 °F 33.8 °F 86% 30.05 in 10.0 mi NE 4.6 mph - N/A   Overcast
1:15 AM 37.4 °F 33.8 °F 33.8 °F 87% 30.05 in 10.0 mi NE 4.6 mph - N/A   Overcast
1:40 AM 37.4 °F 32.8 °F 34.2 °F 88% 30.04 in 10.0 mi NE 5.8 mph - N/A   Overcast
1:55 AM 37.4 °F 33.8 °F 34.2 °F 88% 30.04 in 10.0 mi NE 4.6 mph - N/A   Overcast
2:15 AM 37.0 °F 33.3 °F 34.2 °F 89% 30.04 in 10.0 mi NE 4.6 mph - N/A   Overcast
2:35 AM 36.5 °F 31.0 °F 33.8 °F 90% 30.04 in 10.0 mi NNE 6.9 mph - N/A   Mostly Cloudy
2:55 AM 36.0 °F 28.5 °F 33.8 °F 92% 30.05 in 10.0 mi North 10.4 mph - N/A   Overcast
3:15 AM 36.7 °F 29.9 °F 34.7 °F 93% 30.05 in 10.0 mi NNE 9.2 mph - N/A   Overcast
3:35 AM 36.1 °F 27.7 °F 34.3 °F 93% 30.05 in 10.0 mi North 12.7 mph - N/A   Overcast
3:55 AM 35.6 °F 26.2 °F 33.8 °F 93% 30.07 in 7.0 mi North 15.0 mph 19.6 mph N/A   Overcast
4:15 AM 35.1 °F 26.9 °F 33.3 °F 93% 30.08 in 10.0 mi North 11.5 mph 18.4 mph N/A   Overcast
4:35 AM 34.7 °F 25.5 °F 30.7 °F 85% 30.10 in 10.0 mi North 13.8 mph 18.4 mph N/A   Overcast
4:55 AM 34.3 °F 24.2 °F 28.8 °F 80% 30.11 in 10.0 mi North 16.1 mph 20.7 mph N/A   Overcast
5:20 AM 33.8 °F 23.2 °F 28.2 °F 80% 30.13 in 10.0 mi North 17.3 mph - N/A   Overcast
5:35 AM 33.4 °F 22.0 °F 26.2 °F 75% 30.12 in 10.0 mi North 19.6 mph 23.0 mph N/A   Overcast
5:55 AM 33.1 °F 21.5 °F 23.5 °F 68% 30.14 in 10.0 mi North 19.6 mph - N/A   Overcast
6:15 AM 32.9 °F 21.3 °F 22.1 °F 65% 30.16 in 10.0 mi North 19.6 mph 24.2 mph N/A   Overcast
6:35 AM 32.4 °F 20.9 °F 21.2 °F 63% 30.18 in 10.0 mi North 18.4 mph 25.3 mph N/A   Overcast
6:55 AM 32.0 °F 21.6 °F 21.2 °F 64% 30.18 in 10.0 mi North 15.0 mph - N/A   Overcast
7:15 AM 32.0 °F 21.6 °F 21.2 °F 64% 30.18 in 10.0 mi NNE 15.0 mph - N/A   Overcast
7:35 AM 32.0 °F 23.0 °F 19.8 °F 61% 30.17 in 10.0 mi NNE 11.5 mph - N/A   Overcast
7:55 AM 32.0 °F 23.0 °F 19.2 °F 59% 30.19 in 10.0 mi North 11.5 mph - N/A   Overcast
8:15 AM 31.8 °F 20.6 °F 19.2 °F 60% 30.20 in 10.0 mi North 17.3 mph - N/A   Overcast
8:35 AM 31.8 °F 21.8 °F 19.4 °F 60% 30.20 in 10.0 mi North 13.8 mph - N/A   Overcast
8:55 AM 31.8 °F 22.3 °F 18.5 °F 58% 30.19 in 10.0 mi NNE 12.7 mph - N/A   Overcast
9:15 AM 31.8 °F 22.8 °F 18.3 °F 57% 30.20 in 10.0 mi NNE 11.5 mph - N/A   Overcast
9:35 AM 32.0 °F 24.8 °F 20.3 °F 62% 30.19 in 10.0 mi NNE 8.1 mph - N/A   Overcast
9:55 AM 32.0 °F 23.6 °F 19.4 °F 60% 30.19 in 10.0 mi NNE 10.4 mph - N/A   Overcast
10:15 AM 32.4 °F 24.6 °F 20.7 °F 62% 30.19 in 10.0 mi North 9.2 mph - N/A   Overcast
10:35 AM 32.0 °F 23.6 °F 20.8 °F 63% 30.20 in 10.0 mi North 10.4 mph - N/A   Overcast
10:55 AM 32.0 °F 22.1 °F 20.5 °F 63% 30.21 in 10.0 mi North 13.8 mph - N/A   Overcast
11:15 AM 32.4 °F 22.5 °F 20.8 °F 63% 30.21 in 10.0 mi North 13.8 mph - N/A   Overcast
11:35 AM 32.5 °F 22.3 °F 21.4 °F 64% 30.21 in 10.0 mi North 15.0 mph - N/A   Overcast
11:55 AM 33.1 °F 24.4 °F 23.5 °F 68% 30.22 in 10.0 mi North 11.5 mph - N/A   Overcast
12:15 PM 33.3 °F 23.7 °F 23.0 °F 66% 30.21 in 10.0 mi North 13.8 mph - N/A   Mostly Cloudy
12:35 PM 34.2 °F 25.2 °F 23.0 °F 64% 30.22 in 10.0 mi North 12.7 mph - N/A   Clear
12:55 PM 34.5 °F 25.7 °F 22.3 °F 61% 30.22 in 10.0 mi North 12.7 mph - N/A   Scattered Clouds
1:15 PM 33.8 °F 26.4 °F 21.6 °F 61% 30.20 in 10.0 mi North 9.2 mph - N/A   Overcast
1:35 PM 35.1 °F 25.5 °F 23.5 °F 63% 30.20 in 10.0 mi North 15.0 mph - N/A   Scattered Clouds
1:55 PM 35.6 °F 27.5 °F 23.2 °F 61% 30.21 in 10.0 mi North 11.5 mph - N/A   Clear
2:15 PM 36.1 °F 28.2 °F 24.1 °F 62% 30.21 in 10.0 mi NNE 11.5 mph - N/A   Clear
2:35 PM 36.5 °F 28.7 °F 23.7 °F 60% 30.21 in 10.0 mi NNE 11.5 mph 18.4 mph N/A   Clear
2:55 PM 36.5 °F 27.8 °F 22.8 °F 58% 30.22 in 10.0 mi North 13.8 mph 19.6 mph N/A   Clear
3:15 PM 36.9 °F 29.6 °F 24.1 °F 60% 30.21 in 10.0 mi NNE 10.4 mph 17.3 mph N/A   Clear
3:35 PM 36.9 °F 29.6 °F 23.2 °F 58% 30.21 in 10.0 mi NNE 10.4 mph - N/A   Clear
3:55 PM 37.0 °F 29.8 °F 23.0 °F 57% 30.22 in 10.0 mi North 10.4 mph - N/A   Clear
4:15 PM 36.9 °F 28.2 °F 23.7 °F 59% 30.23 in 10.0 mi NNW 13.8 mph 17.3 mph N/A   Clear
4:35 PM 36.5 °F 28.2 °F 23.2 °F 59% 30.23 in 10.0 mi North 12.7 mph - N/A   Clear
4:55 PM 35.6 °F 28.6 °F 23.0 °F 60% 30.23 in 10.0 mi North 9.2 mph - N/A   Clear
5:15 PM 34.7 °F 26.9 °F 23.5 °F 64% 30.24 in 10.0 mi NNW 10.4 mph - N/A   Clear
5:35 PM 33.6 °F 26.2 °F 22.8 °F 65% 30.25 in 10.0 mi North 9.2 mph 12.7 mph N/A   Clear
5:55 PM 32.9 °F 23.2 °F 22.5 °F 65% 30.25 in 10.0 mi North 13.8 mph - N/A   Clear
6:15 PM 32.0 °F 23.6 °F 22.3 °F 67% 30.26 in 10.0 mi North 10.4 mph - N/A   Clear
6:35 PM 32.0 °F 24.2 °F 22.5 °F 68% 30.26 in 10.0 mi North 9.2 mph - N/A   Clear
7:00 PM 31.8 °F 24.6 °F 21.2 °F 65% 30.29 in 10.0 mi NNW 8.1 mph - N/A   Clear
7:15 PM 31.1 °F 25.4 °F 22.5 °F 70% 30.29 in 10.0 mi NNW 5.8 mph - N/A   Clear
7:35 PM 30.9 °F 23.5 °F 23.2 °F 73% 30.30 in 10.0 mi NNW 8.1 mph - N/A   Mostly Cloudy
7:55 PM 30.6 °F 22.4 °F 23.4 °F 75% 30.30 in 10.0 mi North 9.2 mph - N/A   Scattered Clouds
8:15 PM 30.2 °F 22.6 °F 23.4 °F 76% 30.30 in 10.0 mi NNW 8.1 mph - N/A   Clear
8:35 PM 29.8 °F 23.0 °F 23.0 °F 76% 30.30 in 10.0 mi North 6.9 mph - N/A   Clear
8:55 PM 29.3 °F 23.2 °F 23.0 °F 77% 30.30 in 10.0 mi North 5.8 mph - N/A   Clear
9:15 PM 29.1 °F 24.1 °F 22.8 °F 77% 30.31 in 10.0 mi North 4.6 mph - N/A   Clear
9:35 PM 28.9 °F 22.8 °F 22.8 °F 78% 30.31 in 10.0 mi North 5.8 mph - N/A   Clear
9:55 PM 27.5 °F 22.2 °F 22.6 °F 82% 30.32 in 10.0 mi NW 4.6 mph - N/A   Clear
10:15 PM 27.5 °F 22.2 °F 22.8 °F 83% 30.32 in 10.0 mi NW 4.6 mph - N/A   Clear
10:35 PM 27.3 °F 22.0 °F 22.1 °F 81% 30.32 in 10.0 mi WNW 4.6 mph - N/A   Clear
10:55 PM 27.3 °F 22.0 °F 22.8 °F 83% 30.32 in 10.0 mi NNW 4.6 mph - N/A   Clear
11:15 PM 27.5 °F 21.1 °F 22.5 °F 81% 30.32 in 10.0 mi NNW 5.8 mph - N/A   Clear
11:35 PM 27.9 °F 20.6 °F 22.1 °F 79% 30.33 in 10.0 mi NW 6.9 mph - N/A   Clear
11:55 PM 27.1 °F 21.8 °F 22.1 °F 81% 30.31 in 10.0 mi NNW 4.6 mph - N/A   Clear